[[{"header":{"parameterUnit":"m.s-1","parameterCategory":1,"la1":30.2991,"la2":30.254,"lo1":-89.0895,"lo2":-89.0444,"dy":0.0017,"dx":0.0017,"nx":28,"ny":28,"refTime":"2025-04-15T21:00:00:Z","depth":0,"parameterNumber":2,"parameterNumberName":"U-component_of_WINDS"},"data":[0,0,0,0,0,0,0,0,0,0,0,0,0,0,0,0,0,0,0,0,0,0,0,0,0,0,0,0,0,0,0,0,0,0,0,0,0,0,0,0,0,0,0,0,0,0,0,0,0,0,0,0,0,0,0,0,0,0,-1.8141,-1.8143,0,-1.8254,-1.8256,-1.8257,-1.8209,-1.8207,-1.8204,-1.8201,-1.832,-1.8326,-1.8331,0,0,0,0,0,0,0,0,0,0,0,0,0,-1.7887,-1.7892,-1.8141,-1.8143,-1.8144,-1.8254,-1.8256,-1.8257,-1.821,-1.8206,-1.8203,-1.82,-1.8318,-1.8325,-1.8332,0,0,0,0,0,0,0,0,0,0,0,0,0,-1.7999,-1.7894,-1.8141,-1.8134,-1.8134,-1.8254,-1.8256,-1.8258,-1.821,-1.8206,-1.8202,-1.8198,-1.8316,-1.8324,-1.8333,-1.8468,0,0,-1.8359,-1.8363,0,0,0,0,0,0,0,0,-1.7992,-1.8008,-1.8133,-1.8134,-1.8135,-1.8213,-1.821,-1.8328,-1.8211,-1.8182,-1.8201,-1.8196,-1.8288,-1.8299,-1.8329,-1.8473,-1.8478,-1.836,-1.8365,-1.8369,-1.8371,0,0,0,0,0,0,0,-1.7985,-1.8003,-1.8186,-1.8135,-1.8136,-1.8126,-1.8137,-1.8232,-1.8257,-1.8184,-1.8181,-1.8194,-1.8288,-1.8321,-1.8331,-1.848,-1.8359,-1.8367,-1.8372,-1.8376,-1.8742,-1.8746,0,0,0,0,0,0,-1.7976,-1.7997,-1.8182,-1.8189,-1.8052,-1.8133,-1.8146,-1.8192,-1.8255,-1.8261,-1.8198,-1.8192,-1.8308,-1.8322,-1.8335,-1.8499,-1.8368,-1.8376,-1.8381,-1.8738,-1.8743,-1.8748,0,0,0,0,0,0,-1.7971,-1.7993,-1.8178,-1.8092,-1.8115,-1.8142,-1.8195,-1.8197,-1.823,-1.8266,-1.827,-1.8227,-1.8306,-1.8323,-1.8435,-1.8502,-1.838,-1.8388,-1.8732,-1.8739,-1.8746,-1.8827,0,0,0,0,0,0,-1.7964,-1.7992,-1.8043,-1.8094,-1.812,-1.8275,-1.8199,-1.8202,-1.8244,-1.8238,-1.8294,-1.83,-1.8304,-1.8423,-1.8444,-1.8512,-1.8395,-1.8726,-1.8735,-1.8743,-1.8818,-1.8835,-1.885,0,0,0,0,0,-1.7955,-1.8061,-1.8046,-1.8068,-1.8184,-1.8279,-1.8294,-1.8296,-1.825,-1.8302,-1.8325,-1.8298,-1.8491,-1.8435,-1.8458,-1.853,-1.8722,-1.8733,-1.8743,-1.8811,-1.8832,-1.885,0,0,0,0,0,0,-1.8019,-1.8068,-1.8051,-1.8177,-1.8224,-1.8271,-1.8337,-1.8318,-1.838,-1.8371,-1.8371,-1.8384,-1.85,-1.8525,-1.8462,-1.8664,-1.86,-1.8615,-1.8644,-1.8664,-1.868,-1.8672,-1.8402,0,0,0,0,0,-1.8047,-1.8119,-1.8159,-1.8266,-1.829,-1.831,-1.8351,-1.8348,-1.8398,-1.8418,-1.8449,-1.8499,-1.8571,-1.8618,-1.8686,-1.8821,-1.8833,-1.8882,-1.8898,-1.8911,-1.8925,-1.8999,-1.9022,-1.8782,-1.8782,-1.8782,0,0,-1.8107,-1.8143,-1.8189,-1.828,-1.8316,-1.8392,-1.8327,-1.841,-1.8467,-1.8431,-1.8539,-1.8563,-1.8619,-1.8743,-1.8799,-1.8768,-1.8994,-1.8924,-1.8934,-1.8941,-1.9012,-1.9035,-1.9055,-1.8789,-1.8788,-1.8787,0,0,-1.8255,-1.8289,-1.8383,-1.842,-1.8476,-1.8488,-1.851,-1.856,-1.8575,-1.8683,-1.8657,-1.8725,-1.8849,-1.889,-1.8927,-1.9091,-1.907,-1.9113,-1.9199,-1.9271,-1.929,-1.9307,-1.9368,-1.9389,-1.9127,-1.9127,-1.9127,0,-1.8323,-1.8436,-1.8434,-1.8519,-1.8561,-1.853,-1.8626,-1.8662,-1.8738,-1.8768,-1.8731,-1.8886,-1.8921,-1.9055,-1.9095,-1.9126,-1.9153,-1.9108,-1.9287,-1.9304,-1.932,-1.9378,-1.94,-1.9132,-1.9132,-1.9131,-1.9131,0,-1.8518,-1.8597,-1.8666,-1.8739,-1.8788,-1.8879,-1.889,-1.894,-1.8933,-1.8949,-1.906,-1.9101,-1.9177,-1.9208,-1.9202,-1.9342,-1.9321,-1.9286,-1.9222,-1.9348,-1.9403,-1.9424,-1.914,-1.9138,-1.9136,-1.9135,0,0,-1.8712,-1.8781,-1.8807,-1.884,-1.8899,-1.8961,-1.905,-1.9124,-1.9168,-1.922,-1.9297,-1.9402,-1.937,-1.9412,-1.941,-1.9473,-1.9603,-1.943,-1.9432,-1.9463,-1.9762,-1.979,-1.9816,-1.9588,-1.9592,-1.9595,-1.9758,0,-1.8866,-1.9022,-1.9022,-1.9167,-1.9241,-1.9212,-1.929,-1.9335,-1.9352,-1.9418,-1.9437,-1.9513,-1.9463,-1.9489,-1.955,-1.9574,-1.9663,-1.9562,-1.9661,-1.9664,-1.965,-1.9844,-1.9874,-2.0026,-1.9779,-1.9783,-1.9786,0,-1.9068,-1.9127,-1.9279,-1.9328,-1.9359,-1.9429,-1.9497,-1.956,-1.9611,-1.9619,-1.9666,-1.9654,-1.9746,-1.9677,-1.9805,-1.9736,-1.9776,-1.9794,-1.98,-1.9811,-1.9734,-1.9863,-2.0074,-2.0098,-1.9819,-1.9816,-1.9814,0,-1.9197,-1.9314,-1.942,-1.9449,-1.9508,-1.9559,-1.9586,-1.9632,-1.9677,-1.9737,-1.9766,-1.9836,-1.9875,-1.993,-1.9938,-1.9886,-2.0067,-1.9998,-2.0078,-2.0078,-2.012,-2.0118,-2.0343,-2.0142,-2.0141,-2.0141,-2.014,0,-1.9371,-1.9466,-1.9479,-1.9545,-1.965,-1.9649,-1.9754,-1.9777,-1.9819,-1.9889,-1.9868,-1.9935,-1.994,-2.0009,-2.0015,-2.0122,-2.0139,-2.0149,-2.015,-2.0153,-2.0152,-2.0181,-2.0171,-2.0147,-2.0145,-2.0144,-2.0143,0,-1.9534,-1.9546,-1.9661,-1.9707,-1.9721,-1.9797,-1.9837,-1.99,-1.9915,-2.0004,-2.0025,-2.0049,-2.0129,-2.0142,-2.0236,-2.024,-2.0368,-2.0357,-2.0351,-2.0351,-2.0431,-2.0424,-2.0685,-2.072,-2.0493,-2.0495,-2.0497,0,-1.9646,-1.9718,-1.9771,-1.9817,-1.9847,-1.992,-1.9965,-1.9967,-2.0015,-2.0079,-2.0135,-2.0213,-2.0275,-2.0405,-2.0432,-2.0504,-2.0496,-2.0582,-2.0507,-2.0507,-2.05,-2.0497,-2.0505,-2.0598,-2.06,-2.0602,-2.0604,0,-1.9843,-1.9846,-1.9911,-1.998,-2.0035,-2.0089,-2.014,-2.0179,-2.0187,-2.0243,-2.0324,-2.0373,-2.0469,-2.0547,-2.0619,-2.0647,-2.0629,-2.0627,-2.065,-2.0654,-2.0649,-2.0655,-2.0394,-2.0621,-2.062,-2.0618,-2.0617,-2.0617,-1.9985,-2.0049,-2.0097,-2.0171,-2.021,-2.0258,-2.032,-2.0342,-2.041,-2.0488,-2.0485,-2.0575,-2.0625,-2.0719,-2.0752,-2.0824,-2.0796,-2.0828,-2.0837,-2.0846,-2.0855,-2.0635,-2.0836,-2.0836,-2.0835,-2.0835,-2.0835,0,-2.0184,-2.0213,-2.0282,-2.0354,-2.0413,-2.0387,-2.0443,-2.0494,-2.0573,-2.0621,-2.0683,-2.0777,-2.0853,-2.0885,-2.0959,-2.101,-2.1004,-2.103,-2.1028,-2.1035,-2.0874,-2.0848,-2.1035,-2.1035,-2.1035,-2.1035,-2.1035,-2.1034,-2.0294,-2.0401,-2.0409,-2.0535,-2.0563,-2.0651,-2.0685,-2.073,-2.0768,-2.0874,-2.0937,-2.0956,-2.0998,-2.1076,-2.1145,-2.1152,-2.1182,-2.1213,-2.1217,-2.1067,-2.1046,-2.1027,-2.1003,-2.1219,-2.1219,-2.1373,-2.1374,-2.1375]},{"header":{"parameterUnit":"m.s-1","parameterCategory":1,"la1":30.2991,"la2":30.254,"lo1":-89.0895,"lo2":-89.0444,"dy":0.0017,"dx":0.0017,"nx":28,"ny":28,"refTime":"2025-04-15T21:00:00:Z","depth":0,"parameterNumber":3,"parameterNumberName":"V-component_of_WINDS"},"data":[0,0,0,0,0,0,0,0,0,0,0,0,0,0,0,0,0,0,0,0,0,0,0,0,0,0,0,0,0,0,0,0,0,0,0,0,0,0,0,0,0,0,0,0,0,0,0,0,0,0,0,0,0,0,0,0,0,0,-4.5846,-4.5846,0,-4.5876,-4.5876,-4.5876,-4.5774,-4.5771,-4.5768,-4.5765,-4.5795,-4.5799,-4.5802,0,0,0,0,0,0,0,0,0,0,0,0,0,-4.5698,-4.5701,-4.5846,-4.5846,-4.5846,-4.5876,-4.5876,-4.5876,-4.5775,-4.5771,-4.5768,-4.5764,-4.5794,-4.5798,-4.5802,0,0,0,0,0,0,0,0,0,0,0,0,0,-4.5748,-4.5702,-4.5845,-4.5799,-4.5795,-4.5876,-4.5876,-4.5877,-4.5776,-4.5771,-4.5767,-4.5762,-4.5792,-4.5798,-4.5803,-4.5929,0,0,-4.582,-4.5822,0,0,0,0,0,0,0,0,-4.5746,-4.5754,-4.5806,-4.5803,-4.5798,-4.5817,-4.5835,-4.5894,-4.5777,-4.5783,-4.5765,-4.576,-4.5806,-4.581,-4.5826,-4.593,-4.5931,-4.582,-4.5824,-4.5826,-4.5827,0,0,0,0,0,0,0,-4.5742,-4.5752,-4.5857,-4.5807,-4.5802,-4.5776,-4.5778,-4.5845,-4.582,-4.5782,-4.5775,-4.578,-4.5803,-4.5821,-4.5826,-4.5932,-4.582,-4.5825,-4.5828,-4.583,-4.614,-4.6144,0,0,0,0,0,0,-4.5745,-4.575,-4.5856,-4.5858,-4.576,-4.5783,-4.5785,-4.5815,-4.5819,-4.5815,-4.5784,-4.5775,-4.5814,-4.5819,-4.5826,-4.5973,-4.5826,-4.5831,-4.5834,-4.6135,-4.6141,-4.6146,0,0,0,0,0,0,-4.5742,-4.5756,-4.5855,-4.5802,-4.5813,-4.579,-4.5825,-4.5818,-4.5836,-4.582,-4.5815,-4.5807,-4.581,-4.5818,-4.5904,-4.5972,-4.5833,-4.5838,-4.6129,-4.6137,-4.6143,-4.6268,0,0,0,0,0,0,-4.5738,-4.5755,-4.5803,-4.5804,-4.5816,-4.5934,-4.5829,-4.5822,-4.5846,-4.5835,-4.584,-4.5837,-4.5807,-4.5896,-4.5909,-4.5977,-4.5843,-4.6123,-4.6132,-4.6141,-4.6258,-4.6279,-4.6297,0,0,0,0,0,-4.5734,-4.5837,-4.5806,-4.582,-4.5876,-4.5938,-4.5944,-4.5909,-4.5852,-4.59,-4.5889,-4.5837,-4.5963,-4.5906,-4.592,-4.5991,-4.6118,-4.613,-4.614,-4.6249,-4.6275,-4.6296,0,0,0,0,0,0,-4.5845,-4.5837,-4.5802,-4.5909,-4.5925,-4.592,-4.598,-4.5937,-4.5969,-4.5957,-4.5911,-4.5913,-4.6007,-4.6007,-4.5944,-4.6112,-4.6031,-4.6045,-4.6108,-4.6133,-4.6152,-4.615,-4.5847,0,0,0,0,0,-4.5882,-4.5934,-4.5923,-4.6019,-4.6028,-4.6003,-4.6029,-4.6,-4.6014,-4.602,-4.6016,-4.6031,-4.6074,-4.6103,-4.6142,-4.6257,-4.6256,-4.6312,-4.6332,-4.6348,-4.6361,-4.6421,-4.6446,-4.6183,-4.6182,-4.6182,0,0,-4.5959,-4.5961,-4.5996,-4.6041,-4.605,-4.6103,-4.6009,-4.607,-4.6109,-4.6029,-4.6109,-4.6107,-4.612,-4.6221,-4.6265,-4.6224,-4.6433,-4.6362,-4.6375,-4.6379,-4.6435,-4.646,-4.6482,-4.619,-4.6189,-4.6187,0,0,-4.6127,-4.6134,-4.6214,-4.6225,-4.6239,-4.6221,-4.6241,-4.6242,-4.6238,-4.6318,-4.6258,-4.6303,-4.6379,-4.6391,-4.6407,-4.6578,-4.6531,-4.6592,-4.6694,-4.6753,-4.6774,-4.6792,-4.6853,-4.6875,-4.6605,-4.6605,-4.6606,0,-4.6221,-4.63,-4.626,-4.6325,-4.6346,-4.6276,-4.6356,-4.6368,-4.6394,-4.641,-4.6364,-4.6456,-4.646,-4.6562,-4.6604,-4.662,-4.664,-4.6591,-4.6774,-4.6792,-4.6808,-4.6866,-4.6889,-4.6613,-4.6612,-4.6611,-4.661,0,-4.6415,-4.647,-4.6533,-4.6561,-4.6588,-4.6661,-4.6631,-4.6663,-4.6632,-4.6619,-4.67,-4.6703,-4.6741,-4.6763,-4.6733,-4.686,-4.6834,-4.6782,-4.67,-4.6842,-4.6894,-4.6916,-4.6623,-4.6621,-4.6618,-4.6617,0,0,-4.6655,-4.6658,-4.6682,-4.6693,-4.6704,-4.6745,-4.6814,-4.6851,-4.6879,-4.69,-4.6955,-4.702,-4.6971,-4.699,-4.696,-4.7012,-4.7147,-4.6953,-4.6952,-4.6988,-4.7287,-4.7326,-4.7352,-4.7115,-4.7119,-4.7122,-4.7285,0,-4.6819,-4.6937,-4.6903,-4.702,-4.7071,-4.7004,-4.7063,-4.7076,-4.7065,-4.7106,-4.7093,-4.714,-4.7072,-4.7083,-4.7131,-4.712,-4.7206,-4.7108,-4.7166,-4.7168,-4.7164,-4.738,-4.7422,-4.7576,-4.7306,-4.7309,-4.7312,0,-4.7028,-4.7056,-4.7179,-4.718,-4.72,-4.7254,-4.7285,-4.7324,-4.7336,-4.7325,-4.7345,-4.7305,-4.7371,-4.7288,-4.7378,-4.7312,-4.7333,-4.7332,-4.7337,-4.7341,-4.7249,-4.739,-4.7624,-4.7647,-4.7344,-4.7342,-4.7339,0,-4.719,-4.7259,-4.7341,-4.7353,-4.7356,-4.7395,-4.7399,-4.7406,-4.743,-4.7457,-4.7472,-4.7506,-4.7524,-4.7551,-4.752,-4.7463,-4.7614,-4.7529,-4.7606,-4.7607,-4.7641,-4.7639,-4.7882,-4.7656,-4.7655,-4.7655,-4.7654,0,-4.7377,-4.7455,-4.7414,-4.7465,-4.7549,-4.7508,-4.7593,-4.7588,-4.7595,-4.7643,-4.7588,-4.7634,-4.759,-4.7632,-4.7608,-4.7686,-4.7695,-4.7687,-4.7679,-4.7692,-4.7693,-4.7705,-4.7694,-4.7661,-4.766,-4.7658,-4.7657,0,-4.7573,-4.7548,-4.7634,-4.763,-4.763,-4.7693,-4.7689,-4.7735,-4.772,-4.7781,-4.7793,-4.777,-4.7816,-4.7788,-4.7835,-4.7818,-4.792,-4.7898,-4.7916,-4.791,-4.7988,-4.7981,-4.8248,-4.828,-4.8033,-4.8035,-4.8037,0,-4.7694,-4.7752,-4.7755,-4.7783,-4.779,-4.7836,-4.786,-4.7821,-4.7849,-4.7866,-4.791,-4.7952,-4.7983,-4.806,-4.8046,-4.8082,-4.806,-4.8151,-4.8065,-4.8075,-4.8061,-4.8058,-4.8063,-4.8168,-4.8171,-4.8174,-4.8176,0,-4.7912,-4.7897,-4.7934,-4.7968,-4.7998,-4.8022,-4.8042,-4.8068,-4.8029,-4.8062,-4.8109,-4.8133,-4.8181,-4.8222,-4.8252,-4.8254,-4.8209,-4.8203,-4.8222,-4.8235,-4.8243,-4.824,-4.7963,-4.8197,-4.8195,-4.8193,-4.8192,-4.8191,-4.8074,-4.8122,-4.8131,-4.8174,-4.8185,-4.8204,-4.8247,-4.8237,-4.8276,-4.8312,-4.8286,-4.8341,-4.835,-4.8385,-4.8393,-4.8435,-4.8398,-4.8427,-4.8434,-4.8442,-4.8452,-4.8237,-4.8441,-4.844,-4.8439,-4.8439,-4.8438,0,-4.8288,-4.829,-4.8331,-4.836,-4.8393,-4.8348,-4.8366,-4.8397,-4.8447,-4.846,-4.8491,-4.8544,-4.8584,-4.8574,-4.8609,-4.8645,-4.8625,-4.8655,-4.8652,-4.8653,-4.8484,-4.8463,-4.8671,-4.8671,-4.8671,-4.8671,-4.8671,-4.8671,-4.8404,-4.8483,-4.8469,-4.8552,-4.8553,-4.8607,-4.8622,-4.8639,-4.8649,-4.8711,-4.8744,-4.8736,-4.874,-4.8775,-4.8809,-4.8805,-4.882,-4.8859,-4.8847,-4.8689,-4.8666,-4.8644,-4.8624,-4.8862,-4.8863,-4.9013,-4.9014,-4.9015]}]]